• MPC Preparation (Info)

  • MPEC 2016-O141: 2014 JM80

    The following Minor Planet Electronic Circular may be linked-to from your own Web pages, but must not otherwise be redistributed electronically.

    A form allowing access to any MPEC is at the bottom of this page.


    Read MPEC 2016-O140 Read MPEC 2016-O142


    M.P.E.C. 2016-O141                               Issued 2016 July 17, 08:00 UT
    
         The Minor Planet Electronic Circulars contain information on unusual
             minor planets and routine data on comets.  They are published
        on behalf of Division F of the International Astronomical Union by the
              Minor Planet Center, Smithsonian Astrophysical Observatory,
                              Cambridge, MA 02138, U.S.A.
    
                 Prepared using the Tamkin Foundation Computer Network
    
                                  MPC@CFA.HARVARD.EDU
                URL https://www.minorplanetcenter.net/    ISSN 1523-6714
    
                                       2014 JM80
    
    Observations:
         K14J80M  C2012 06 13.33389 15 59 54.782-02 34 34.48         22.2 wLEO141F51
         K14J80M  C2012 06 13.34862 15 59 54.724-02 34 34.44         22.2 wLEO141F51
         K14J80M  C2012 06 13.36338 15 59 54.656-02 34 34.81         22.2 wLEO141F51
         K14J80M  C2012 06 13.37810 15 59 54.606-02 34 34.42         22.6 wLEO141F51
         K14J80M  C2013 04 19.51870 16 08 16.680-02 49 54.80         22.3 wLEO141F51
         K14J80M  C2013 04 19.53155 16 08 16.652-02 49 54.96         22.3 wLEO141F51
         K14J80M  C2013 04 19.54510 16 08 16.591-02 49 54.85         22.3 wLEO141F51
         K14J80M  C2013 04 19.55799 16 08 16.557-02 49 54.69         22.5 wLEO141F51
         K14J80M  C2013 05 12.44576 16 06 53.166-02 41 44.42         22.6 wLEO141F51
         K14J80M  C2013 05 12.45902 16 06 53.112-02 41 43.89         22.8 wLEO141F51
         K14J80M  C2013 05 12.47225 16 06 53.043-02 41 43.85         22.7 wLEO141F51
         K14J80M  C2013 05 12.48546 16 06 53.002-02 41 43.67         22.3 wLEO141F51
         K14J80M* C2014 05 07.44523 16 12 05.689-02 44 08.34         22.7 wLEO141F51
         K14J80M  C2014 05 07.45745 16 12 05.642-02 44 07.74         22.7 wLEO141F51
         K14J80M  C2014 05 07.46965 16 12 05.595-02 44 07.58         22.7 wLEO141F51
         K14J80M  C2014 05 07.48189 16 12 05.548-02 44 07.51         22.6 wLEO141F51
         K14J80M  C2014 05 23.46389 16 11 01.692-02 39 35.50         21.9 wLEO141F51
         K14J80M  C2014 05 23.47551 16 11 01.653-02 39 35.26         22.1 wLEO141F51
         K14J80M  C2014 05 23.48712 16 11 01.592-02 39 35.10         22.3 wLEO141F51
         K14J80M  C2014 05 23.49873 16 11 01.547-02 39 34.88         22.4 wLEO141F51
         K14J80M  C2014 06 02.35750 16 10 21.266-02 37 35.43         22.5 wLEO141F51
         K14J80M  C2014 06 02.36873 16 10 21.227-02 37 35.46         22.7 wLEO141F51
         K14J80M  C2014 06 02.39124 16 10 21.115-02 37 35.40         22.6 wLEO141F51
         K14J80M  C2015 05 19.42623 16 16 13.119-02 41 21.48         22.2 wLEO141F51
         K14J80M  C2015 05 19.43686 16 16 13.071-02 41 21.61         22.1 wLEO141F51
         K14J80M  C2015 05 19.44755 16 16 13.039-02 41 21.17         22.3 wLEO141F51
         K14J80M  C2015 05 19.45822 16 16 12.987-02 41 20.77         22.3 wLEO141F51
    
    Observer details:
    F51 Pan-STARRS 1, Haleakala.  Observers B. Gibson, T. Goggia, N. Primak,
        A. Schultz, M. Willman.  Measurers K. Chambers, S. Chastel, Y.-T. Chen,
        L. Denneau, H. Flewelling, M. Holman, M. Huber, R. Jedicke, M. Lackner,
        E. Lilly, H.-W. Lin, E. Magnier, M. Micheli, M. Payne, P. Veres,
        R. Wainscoat, C. Waters, R. Weryk.  1.8-m Ritchey-Chretien + CCD.
    
    Orbital elements:
    2014 JM80
    Epoch 2016 July 31.0 TT = JDT 2457600.5                 MPC
    M 341.15093              (2000.0)            P               Q
    n   0.00198565     Peri.   96.14670     +0.14481511     +0.98935687
    a  62.6903665      Node   182.32744     -0.98821520     +0.14389907
    e   0.2660194      Incl.   20.46285     -0.04959140     +0.02158793
    P 496              H    5.5           G   0.15           U   3
    Residuals in seconds of arc
    120613 F51  0.1+  0.2+    130512 F51  0.1+  0.2+    140523 F51  0.1-  0.0
    120613 F51  0.1+  0.2+    130512 F51  0.1-  0.0     140523 F51  0.0   0.1+
    120613 F51  0.1-  0.2-    130512 F51  0.0   0.1-    140602 F51  0.0   0.0
    120613 F51  0.0   0.1+    140507 F51  0.1-  0.0     140602 F51  0.1+  0.1-
    130419 F51  0.1-  0.4+    140507 F51  0.0   0.3+    140602 F51  0.2-  0.3-
    130419 F51  0.1+  0.1-    140507 F51  0.0   0.2+    150519 F51  0.0   0.0
    130419 F51  0.1-  0.3-    140507 F51  0.0   0.1+    150519 F51  0.1-  0.3-
    130419 F51  0.0   0.5-    140523 F51  0.0   0.1-    150519 F51  0.1+  0.0
    130512 F51  0.1+  0.1-    140523 F51  0.1+  0.0     150519 F51  0.0   0.2+
    
    Ephemeris:
    2014 JM80                a,e,i = 62.69, 0.27, 20                 q = 46.014
    Date    TT    R. A. (2000) Decl.     Delta      r     Elong.  Phase     V
    2016 06 17    16 19 10.3 -02 37 15  46.7464 47.6379   151.0     0.6    22.3
    ...
    2016 07 02    16 18 16.7 -02 37 16  46.8603 47.6330   139.1     0.8    22.4
    ...
    2016 07 10    16 17 52.3 -02 37 58  46.9418 47.6304   132.2     0.9    22.4
    ...
    2016 07 16    16 17 36.3 -02 38 47  47.0111 47.6284   126.9     1.0    22.4
    2016 07 17    16 17 33.8 -02 38 57  47.0233 47.6281   126.0     1.0    22.4
    2016 07 18    16 17 31.4 -02 39 07  47.0356 47.6277   125.1     1.0    22.4
    ...
    2016 07 24    16 17 18.4 -02 40 17  47.1130 47.6258   119.8     1.1    22.4
    ...
    2016 08 01    16 17 05.0 -02 42 11  47.2242 47.6232   112.6     1.1    22.4
    ...
    2016 08 16    16 16 52.8 -02 46 45  47.4500 47.6183    99.0     1.2    22.4
    
    A. U. Tomatic                (C) Copyright 2016 MPC           M.P.E.C. 2016-O141
    

    Read MPEC 2016-O140 Read MPEC 2016-O142


    MPEC number:

    Enter an MPEC number in one of the following forms:

    • 1997-B01 (the full form)
    • J97B01 (the packed version of the full form)
    • B01 (the abbreviated form)